Location: Clermont
(50.2608°N, 4.3172°E)
Time: 20:22:30
(UTC+00:00)

Cosmos 2333 Rocket - Pass Details

Date: 13 August 2020
Orbit: 837 x 864 km, 70.8° (Epoch: 21 September)

Event Time Altitude Azimuth Distance (km) Brightness Sun altitude
Rises 23:13:22 0° 326° (NW) 3,456 6.4 -25.0°
Reaches altitude 10° 23:15:57 10° 319° (NW) 2,514 5.4 -25.1°
Maximum altitude 23:21:19 41° 252° (WSW) 1,233 2.9 -25.2°
Enters shadow 23:21:46 40° 240° (WSW) 1,246 2.8 -25.2°
